sat.trackr.live / text

‹ back to catalog

STARLINK-1365

NORAD 45590 · 2020-025BM

PAYLOAD ACTIVE UNKNOWN

§ Identity

Operator
Country
US
Launch date
2020-04-22
Launch site
AFETR
Launch vehicle
Mass (kg)
RCS (m²)

Purposes: comms

External: N2YO · Heavens-Above · Gunter

§ Orbital elements

Epoch: 2026-09-14T23:26:45.807648Z

Period
91.43 min
Inclination
53.0389°
Eccentricity
0.0004324
Mean motion
15.74908308 rev/d
Perigee alt
342.0 km
Apogee alt
347.8 km
Semi-major
6,723.0 km
B*
5.2384e-4
RAAN
249.8665°
Arg perigee
43.6228°
Mean anomaly
316.5131°
Rev number
35,485

§ Raw data

STARLINK-13651 45590U 20025BM  26257.97691907  .00079301  00000+0  52384-3 0  99962 45590  53.0389 249.8665 0004324  43.6228 316.5131 15.74908308354851

JSON: /api/v1/satellites/45590 · /tle

For live sub-satellite position, see the globe view (requires WebGL).

§ Visibility from observer

Set your observer location to see the next 7 days of passes ≥ 10°. The values pass through the URL so the page stays shareable.

No JS? Fill the form by hand. The geolocation button needs JavaScript.